Hourly Weather Jish

Today, 2 December, Wednesday

Time Temperature Precipitation Wind Pressure Humidity
00:00 +12°C° 0 mm 1 mps 695 mmHg 62%
01:00 +12°C° 0 mm 1 mps 695 mmHg 62%
02:00 +12°C° 0 mm 1 mps 695 mmHg 61%
03:00 +12°C° 0 mm 1 mps 695 mmHg 61%
04:00 +11°C° 0 mm 1 mps 696 mmHg 61%
05:00 +11°C° 0 mm 1 mps 696 mmHg 61%
06:00 +12°C° 0 mm 1 mps 696 mmHg 60%
07:00 +13°C° 0 mm 1 mps 696 mmHg 58%
08:00 +14°C° 0 mm 1 mps 697 mmHg 57%
09:00 +15°C° 0 mm 1 mps 697 mmHg 53%
10:00 +16°C° 0 mm 1 mps 697 mmHg 49%
11:00 +18°C° 0 mm 1 mps 698 mmHg 45%
12:00 +18°C° 0 mm 1 mps 697 mmHg 47%
13:00 +17°C° 0 mm 2 mps 697 mmHg 48%
14:00 +17°C° 0 mm 2 mps 697 mmHg 49%
15:00 +16°C° 0.1 mm 2 mps 697 mmHg 56%
16:00 +15°C° 0.1 mm 2 mps 697 mmHg 62%
17:00 +14°C° 0.1 mm 2 mps 696 mmHg 69%
18:00 +13°C° 0 mm 2 mps 697 mmHg 70%
19:00 +13°C° 0 mm 2 mps 697 mmHg 72%
20:00 +13°C° 0 mm 1 mps 697 mmHg 73%
21:00 +13°C° 0 mm 2 mps 697 mmHg 71%
22:00 +12°C° 0 mm 2 mps 697 mmHg 70%
23:00 +12°C° 0 mm 2 mps 697 mmHg 68%

Tomorrow, 3 December, Thursday

Time Temperature Precipitation Wind Pressure Humidity
00:00 +12°C° 0 mm 2 mps 697 mmHg 68%
01:00 +12°C° 0 mm 2 mps 697 mmHg 67%
02:00 +12°C° 0 mm 2 mps 697 mmHg 67%
03:00 +12°C° 0 mm 2 mps 697 mmHg 67%
04:00 +10°C° 0 mm 2 mps 697 mmHg 67%
05:00 +10°C° 0 mm 2 mps 697 mmHg 67%
06:00 +12°C° 0 mm 2 mps 698 mmHg 65%
07:00 +13°C° 0 mm 2 mps 698 mmHg 63%
08:00 +12°C° 0 mm 3 mps 698 mmHg 61%
09:00 +14°C° 0 mm 3 mps 698 mmHg 58%
10:00 +15°C° 0 mm 4 mps 699 mmHg 54%
11:00 +16°C° 0 mm 5 mps 699 mmHg 51%
12:00 +16°C° 0 mm 5 mps 698 mmHg 49%
13:00 +17°C° 0 mm 5 mps 698 mmHg 48%
14:00 +18°C° 0 mm 4 mps 698 mmHg 46%
15:00 +17°C° 0 mm 4 mps 697 mmHg 51%
16:00 +16°C° 0 mm 3 mps 697 mmHg 55%
17:00 +13°C° 0 mm 3 mps 697 mmHg 60%
18:00 +13°C° 0 mm 3 mps 697 mmHg 60%
19:00 +13°C° 0 mm 3 mps 697 mmHg 61%
20:00 +12°C° 0 mm 3 mps 697 mmHg 61%
21:00 +12°C° 0 mm 4 mps 697 mmHg 62%
22:00 +12°C° 0 mm 4 mps 697 mmHg 62%
23:00 +12°C° 0 mm 4 mps 697 mmHg 62%

Day after tomorrow, 4 December, Friday

Time Temperature Precipitation Wind Pressure Humidity
00:00 +12°C° 0 mm 3 mps 697 mmHg 61%
01:00 +12°C° 0 mm 3 mps 696 mmHg 61%
02:00 +12°C° 0 mm 3 mps 696 mmHg 60%
03:00 +11°C° 0 mm 3 mps 696 mmHg 60%
04:00 +11°C° 0 mm 3 mps 696 mmHg 60%
05:00 +11°C° 0 mm 4 mps 696 mmHg 60%
06:00 +12°C° 0 mm 4 mps 696 mmHg 60%
07:00 +12°C° 0 mm 5 mps 697 mmHg 60%
08:00 +13°C° 0 mm 5 mps 697 mmHg 60%
09:00 +14°C° 0 mm 6 mps 697 mmHg 57%
10:00 +15°C° 0 mm 6 mps 698 mmHg 55%
11:00 +16°C° 0 mm 7 mps 698 mmHg 52%
12:00 +16°C° 0 mm 6 mps 697 mmHg 51%
13:00 +17°C° 0 mm 6 mps 697 mmHg 50%
14:00 +17°C° 0 mm 5 mps 697 mmHg 49%
15:00 +17°C° 0 mm 4 mps 696 mmHg 52%
16:00 +16°C° 0 mm 3 mps 696 mmHg 55%
17:00 +15°C° 0 mm 1 mps 696 mmHg 58%
18:00 +14°C° 0.1 mm 1 mps 696 mmHg 61%
19:00 +14°C° 0.1 mm 1 mps 696 mmHg 63%
20:00 +13°C° 0.1 mm 1 mps 696 mmHg 66%
21:00 +13°C° 0.5 mm 2 mps 696 mmHg 66%
22:00 +13°C° 0.5 mm 2 mps 696 mmHg 66%
23:00 +13°C° 0.5 mm 2 mps 696 mmHg 66%

5 December, Saturday

Time Temperature Precipitation Wind Pressure Humidity
00:00 +13°C° 0.2 mm 2 mps 696 mmHg 66%
01:00 +13°C° 0.2 mm 2 mps 696 mmHg 66%
02:00 +13°C° 0.2 mm 2 mps 696 mmHg 66%
03:00 +13°C° 0.2 mm 2 mps 696 mmHg 66%
04:00 +12°C° 0.2 mm 3 mps 696 mmHg 66%
05:00 +11°C° 0.2 mm 3 mps 696 mmHg 67%
06:00 +13°C° 0.1 mm 2 mps 696 mmHg 66%
07:00 +13°C° 0.1 mm 2 mps 696 mmHg 66%
08:00 +13°C° 0.1 mm 2 mps 697 mmHg 65%
09:00 +14°C° 0.1 mm 2 mps 697 mmHg 62%
10:00 +15°C° 0.1 mm 2 mps 697 mmHg 59%
11:00 +16°C° 0.1 mm 2 mps 697 mmHg 55%
12:00 +16°C° 0.3 mm 2 mps 697 mmHg 54%
13:00 +16°C° 0.3 mm 2 mps 696 mmHg 53%
14:00 +16°C° 0.3 mm 1 mps 696 mmHg 52%
15:00 +15°C° 0.4 mm 2 mps 696 mmHg 59%
16:00 +14°C° 0.4 mm 2 mps 696 mmHg 66%
17:00 +13°C° 0.4 mm 2 mps 696 mmHg 73%
18:00 +13°C° 0.1 mm 2 mps 696 mmHg 73%
19:00 +13°C° 0.1 mm 1 mps 697 mmHg 74%
20:00 +12°C° 0.1 mm 1 mps 697 mmHg 75%
21:00 +12°C° 0 mm 1 mps 697 mmHg 74%
22:00 +12°C° 0 mm 1 mps 697 mmHg 74%
23:00 +11°C° 0 mm 0 mps 697 mmHg 73%

6 December, Sunday

Time Temperature Precipitation Wind Pressure Humidity
00:00 +10°C° 0 mm 0 mps 697 mmHg 73%
01:00 +10°C° 0 mm 0 mps 697 mmHg 73%
02:00 +10°C° 0 mm 0 mps 697 mmHg 73%
03:00 +10°C° 0 mm 0 mps 697 mmHg 73%
04:00 +10°C° 0 mm 0 mps 697 mmHg 73%
05:00 +9°C° 0 mm 0 mps 697 mmHg 73%
06:00 +10°C° 0 mm 0 mps 697 mmHg 70%
07:00 +11°C° 0 mm 0 mps 698 mmHg 68%
08:00 +12°C° 0 mm 0 mps 698 mmHg 65%
09:00 +14°C° 0 mm 1 mps 698 mmHg 62%
10:00 +15°C° 0 mm 1 mps 698 mmHg 60%
11:00 +16°C° 0 mm 1 mps 699 mmHg 57%
12:00 +16°C° 0 mm 2 mps 698 mmHg 57%
13:00 +16°C° 0 mm 2 mps 698 mmHg 56%
14:00 +16°C° 0 mm 2 mps 698 mmHg 56%
15:00 +15°C° 0 mm 2 mps 698 mmHg 62%
16:00 +14°C° 0 mm 1 mps 698 mmHg 68%
17:00 +13°C° 0 mm 1 mps 697 mmHg 74%
18:00 +13°C° 0 mm 1 mps 697 mmHg 75%
19:00 +12°C° 0 mm 1 mps 698 mmHg 76%
20:00 +12°C° 0 mm 1 mps 698 mmHg 77%
21:00 +12°C° 0 mm 1 mps 698 mmHg 77%
22:00 +12°C° 0 mm 1 mps 698 mmHg 76%
23:00 +11°C° 0 mm 1 mps 698 mmHg 75%

7 December, Monday

Time Temperature Precipitation Wind Pressure Humidity
00:00 +11°C° 0 mm 1 mps 698 mmHg 75%
01:00 +11°C° 0 mm 1 mps 698 mmHg 74%
02:00 +11°C° 0 mm 1 mps 698 mmHg 74%
03:00 +10°C° 0 mm 2 mps 698 mmHg 72%
04:00 +10°C° 0 mm 2 mps 698 mmHg 71%
05:00 +10°C° 0 mm 2 mps 697 mmHg 69%
06:00 +12°C° 0 mm 2 mps 698 mmHg 67%
07:00 +11°C° 0 mm 3 mps 698 mmHg 65%
08:00 +12°C° 0 mm 3 mps 699 mmHg 63%
09:00 +13°C° 0 mm 3 mps 699 mmHg 58%
10:00 +15°C° 0 mm 4 mps 699 mmHg 53%
11:00 +16°C° 0 mm 5 mps 699 mmHg 48%
12:00 +17°C° 0 mm 4 mps 699 mmHg 46%
13:00 +17°C° 0 mm 4 mps 699 mmHg 45%
14:00 +18°C° 0 mm 4 mps 698 mmHg 43%
15:00 +17°C° 0 mm 4 mps 698 mmHg 46%
16:00 +16°C° 0 mm 3 mps 698 mmHg 49%
17:00 +14°C° 0 mm 3 mps 697 mmHg 53%
18:00 +13°C° 0 mm 3 mps 697 mmHg 53%
19:00 +13°C° 0 mm 3 mps 697 mmHg 53%
20:00 +12°C° 0 mm 3 mps 697 mmHg 53%
21:00 +12°C° 0 mm 3 mps 697 mmHg 53%
22:00 +12°C° 0 mm 3 mps 697 mmHg 52%
23:00 +12°C° 0 mm 3 mps 697 mmHg 52%
Show more